[[{"header":{"parameterUnit":"m.s-1","parameterCategory":1,"la1":30.2991,"la2":30.254,"lo1":-89.0895,"lo2":-89.0444,"dy":0.0017,"dx":0.0017,"nx":28,"ny":28,"refTime":"2025-01-27T09:00:00:Z","depth":0,"parameterNumber":2,"parameterNumberName":"U-component_of_WINDS"},"data":[0,0,0,0,0,0,0,0,0,0,0,0,0,0,0,0,0,0,0,0,0,0,0,0,0,0,0,0,0,0,0,0,0,0,0,0,0,0,0,0,0,0,0,0,0,0,0,0,0,0,0,0,0,0,0,0,0,0,-0.0752,-0.0752,0,-0.071,-0.0709,-0.0709,-0.0674,-0.0673,-0.0673,-0.0673,-0.0632,-0.0631,-0.063,0,0,0,0,0,0,0,0,0,0,0,0,0,-0.0804,-0.0803,-0.0752,-0.0752,-0.0751,-0.071,-0.0709,-0.0709,-0.0674,-0.0673,-0.0673,-0.0672,-0.0632,-0.0631,-0.063,0,0,0,0,0,0,0,0,0,0,0,0,0,-0.0774,-0.0803,-0.0752,-0.0729,-0.0726,-0.071,-0.0709,-0.0708,-0.0674,-0.0673,-0.0673,-0.0672,-0.0632,-0.0631,-0.063,-0.0634,0,0,-0.0627,-0.0626,0,0,0,0,0,0,0,0,-0.0775,-0.0772,-0.0733,-0.073,-0.0727,-0.0696,-0.0712,-0.0684,-0.0674,-0.0694,-0.0673,-0.0672,-0.0654,-0.0651,-0.0644,-0.0632,-0.0631,-0.0626,-0.0626,-0.0625,-0.0625,0,0,0,0,0,0,0,-0.0778,-0.0773,-0.0735,-0.0732,-0.0729,-0.0721,-0.0716,-0.0707,-0.0678,-0.0692,-0.0689,-0.0685,-0.0652,-0.0645,-0.0643,-0.063,-0.0626,-0.0625,-0.0625,-0.0624,-0.0619,-0.0619,0,0,0,0,0,0,-0.0783,-0.0775,-0.0737,-0.0734,-0.075,-0.072,-0.0714,-0.0707,-0.0678,-0.0672,-0.0685,-0.0683,-0.0648,-0.0644,-0.0641,-0.0644,-0.0625,-0.0624,-0.0624,-0.0618,-0.0619,-0.062,0,0,0,0,0,0,-0.0784,-0.078,-0.0738,-0.0754,-0.0748,-0.072,-0.0712,-0.0706,-0.0699,-0.0672,-0.0667,-0.0684,-0.0647,-0.0643,-0.0636,-0.0643,-0.0624,-0.0623,-0.0618,-0.0619,-0.0619,-0.0651,0,0,0,0,0,0,-0.0786,-0.0781,-0.0782,-0.0754,-0.0747,-0.0734,-0.0712,-0.0706,-0.0697,-0.0694,-0.0669,-0.0665,-0.0646,-0.0638,-0.0635,-0.0641,-0.0622,-0.0617,-0.0618,-0.0619,-0.0649,-0.0653,-0.0656,0,0,0,0,0,-0.0788,-0.0793,-0.0782,-0.0778,-0.0748,-0.0734,-0.073,-0.0708,-0.0698,-0.0699,-0.0681,-0.0666,-0.0642,-0.0637,-0.0634,-0.0639,-0.0617,-0.0618,-0.0619,-0.0648,-0.0652,-0.0656,0,0,0,0,0,0,-0.0824,-0.0789,-0.0777,-0.0773,-0.0757,-0.0728,-0.0729,-0.0713,-0.07,-0.0698,-0.0672,-0.0666,-0.0662,-0.065,-0.0646,-0.0642,-0.0627,-0.0628,-0.065,-0.0654,-0.0657,-0.0661,-0.0621,0,0,0,0,0,-0.0831,-0.0822,-0.0792,-0.0792,-0.0784,-0.0758,-0.0751,-0.0735,-0.0718,-0.0711,-0.0693,-0.0677,-0.0665,-0.0659,-0.0647,-0.0646,-0.0641,-0.0648,-0.0652,-0.0654,-0.0656,-0.0654,-0.0657,-0.0623,-0.0623,-0.0623,0,0,-0.0847,-0.0827,-0.0823,-0.0799,-0.0784,-0.0776,-0.0753,-0.0745,-0.0738,-0.071,-0.0702,-0.0688,-0.0668,-0.0664,-0.0662,-0.0654,-0.0663,-0.0656,-0.0658,-0.0658,-0.0656,-0.0659,-0.0662,-0.0624,-0.0624,-0.0624,0,0,-0.0871,-0.0854,-0.0852,-0.0837,-0.0815,-0.0797,-0.0797,-0.077,-0.0759,-0.0751,-0.0729,-0.072,-0.0702,-0.0689,-0.0679,-0.0696,-0.0681,-0.0693,-0.071,-0.0709,-0.0712,-0.0714,-0.072,-0.0723,-0.0694,-0.0694,-0.0694,0,-0.0893,-0.0879,-0.0853,-0.0846,-0.0836,-0.0808,-0.0806,-0.0793,-0.0769,-0.0762,-0.0753,-0.0729,-0.0713,-0.0706,-0.071,-0.0703,-0.0702,-0.0696,-0.0713,-0.0715,-0.0717,-0.0723,-0.0725,-0.0695,-0.0695,-0.0695,-0.0695,0,-0.0908,-0.0898,-0.0899,-0.0875,-0.0865,-0.086,-0.0834,-0.0827,-0.0811,-0.0794,-0.0785,-0.0765,-0.0749,-0.0746,-0.0731,-0.0736,-0.0731,-0.0718,-0.0703,-0.0722,-0.0727,-0.0729,-0.0698,-0.0697,-0.0697,-0.0696,0,0,-0.0956,-0.0915,-0.0916,-0.0905,-0.0877,-0.0869,-0.0863,-0.0845,-0.084,-0.0823,-0.0818,-0.0801,-0.0788,-0.0778,-0.0761,-0.076,-0.0774,-0.0746,-0.0745,-0.0753,-0.0778,-0.079,-0.0793,-0.0763,-0.0763,-0.0763,-0.078,0,-0.0976,-0.0963,-0.0939,-0.0934,-0.0924,-0.0896,-0.0891,-0.0873,-0.0857,-0.0846,-0.0828,-0.0817,-0.0801,-0.0794,-0.0792,-0.0773,-0.0779,-0.0771,-0.0758,-0.0758,-0.0766,-0.0795,-0.0807,-0.0824,-0.0782,-0.0782,-0.0782,0,-0.0999,-0.0983,-0.0977,-0.0948,-0.0943,-0.0939,-0.092,-0.0911,-0.089,-0.0878,-0.0865,-0.0846,-0.0837,-0.0823,-0.0811,-0.0806,-0.0799,-0.0789,-0.0789,-0.0788,-0.0773,-0.0796,-0.0829,-0.0832,-0.0785,-0.0785,-0.0785,0,-0.1036,-0.1012,-0.1005,-0.0996,-0.0962,-0.096,-0.0946,-0.0924,-0.0915,-0.0898,-0.0892,-0.0875,-0.0867,-0.0854,-0.0831,-0.0822,-0.0822,-0.0805,-0.0812,-0.0813,-0.0815,-0.0816,-0.0849,-0.0809,-0.0809,-0.0809,-0.0808,0,-0.1062,-0.106,-0.1021,-0.1017,-0.1013,-0.0984,-0.0981,-0.0965,-0.0945,-0.0937,-0.0912,-0.0905,-0.0874,-0.0864,-0.0845,-0.0839,-0.0835,-0.0825,-0.0821,-0.0828,-0.083,-0.0825,-0.0823,-0.0809,-0.0809,-0.0809,-0.0809,0,-0.1104,-0.1078,-0.1068,-0.1036,-0.1028,-0.1027,-0.0999,-0.0994,-0.0975,-0.0966,-0.0962,-0.0932,-0.0918,-0.0893,-0.0873,-0.086,-0.0858,-0.0849,-0.0865,-0.0862,-0.0871,-0.0871,-0.0903,-0.0906,-0.0863,-0.0864,-0.0864,0,-0.1123,-0.1121,-0.1088,-0.108,-0.1067,-0.1055,-0.1045,-0.1016,-0.1006,-0.0981,-0.0979,-0.0963,-0.0949,-0.0928,-0.0905,-0.0889,-0.088,-0.0892,-0.0878,-0.0886,-0.0882,-0.0883,-0.0882,-0.0897,-0.0897,-0.0898,-0.0898,0,-0.1161,-0.1147,-0.1134,-0.1115,-0.1103,-0.1087,-0.107,-0.1065,-0.1032,-0.1022,-0.1007,-0.0996,-0.0974,-0.0959,-0.0939,-0.0924,-0.0906,-0.0902,-0.0903,-0.0912,-0.0922,-0.0917,-0.0875,-0.0902,-0.0902,-0.0902,-0.0901,-0.0901,-0.1193,-0.1189,-0.1164,-0.1149,-0.1133,-0.1117,-0.111,-0.1089,-0.1076,-0.1055,-0.1038,-0.1025,-0.1002,-0.0974,-0.096,-0.0949,-0.0941,-0.0942,-0.0942,-0.0944,-0.0947,-0.0922,-0.0945,-0.0945,-0.0945,-0.0945,-0.0945,0,-0.123,-0.1212,-0.1198,-0.1174,-0.1162,-0.1144,-0.1123,-0.1114,-0.1102,-0.1083,-0.1068,-0.1051,-0.1035,-0.101,-0.0992,-0.0988,-0.0979,-0.0984,-0.0985,-0.0982,-0.0955,-0.0957,-0.0992,-0.0992,-0.0992,-0.0992,-0.0992,-0.0992,-0.1248,-0.124,-0.1223,-0.1206,-0.1189,-0.1175,-0.1164,-0.1149,-0.1133,-0.1114,-0.11,-0.1083,-0.1061,-0.1041,-0.1026,-0.1019,-0.1014,-0.1022,-0.1013,-0.0989,-0.0984,-0.098,-0.0981,-0.1021,-0.1021,-0.1041,-0.1041,-0.1041]},{"header":{"parameterUnit":"m.s-1","parameterCategory":1,"la1":30.2991,"la2":30.254,"lo1":-89.0895,"lo2":-89.0444,"dy":0.0017,"dx":0.0017,"nx":28,"ny":28,"refTime":"2025-01-27T09:00:00:Z","depth":0,"parameterNumber":3,"parameterNumberName":"V-component_of_WINDS"},"data":[0,0,0,0,0,0,0,0,0,0,0,0,0,0,0,0,0,0,0,0,0,0,0,0,0,0,0,0,0,0,0,0,0,0,0,0,0,0,0,0,0,0,0,0,0,0,0,0,0,0,0,0,0,0,0,0,0,0,-3.5953,-3.5954,0,-3.6033,-3.6034,-3.6034,-3.6028,-3.6027,-3.6026,-3.6025,-3.6102,-3.6105,-3.6108,0,0,0,0,0,0,0,0,0,0,0,0,0,-3.5794,-3.5797,-3.5953,-3.5954,-3.5955,-3.6032,-3.6034,-3.6035,-3.6029,-3.6027,-3.6026,-3.6024,-3.6101,-3.6105,-3.6109,0,0,0,0,0,0,0,0,0,0,0,0,0,-3.5867,-3.5798,-3.5953,-3.5962,-3.5963,-3.6032,-3.6034,-3.6035,-3.6029,-3.6027,-3.6025,-3.6024,-3.61,-3.6105,-3.6109,-3.6174,0,0,-3.6124,-3.6126,0,0,0,0,0,0,0,0,-3.5863,-3.5873,-3.5959,-3.5961,-3.5963,-3.6019,-3.6006,-3.6081,-3.6029,-3.6004,-3.6025,-3.6023,-3.6076,-3.6082,-3.6101,-3.6177,-3.6181,-3.6124,-3.6127,-3.6129,-3.613,0,0,0,0,0,0,0,-3.5858,-3.587,-3.5984,-3.5961,-3.5963,-3.5961,-3.5969,-3.602,-3.6048,-3.6006,-3.6006,-3.6015,-3.6076,-3.6096,-3.6103,-3.6182,-3.6124,-3.6128,-3.6131,-3.6133,-3.6317,-3.6319,0,0,0,0,0,0,-3.5852,-3.5866,-3.5982,-3.5987,-3.5908,-3.5965,-3.5975,-3.6003,-3.6048,-3.6053,-3.6017,-3.6015,-3.6089,-3.6097,-3.6105,-3.6185,-3.6129,-3.6133,-3.6136,-3.6315,-3.6317,-3.6319,0,0,0,0,0,0,-3.5848,-3.5862,-3.5979,-3.5926,-3.5941,-3.597,-3.6001,-3.6005,-3.6025,-3.6056,-3.6061,-3.6032,-3.6088,-3.6099,-3.6157,-3.6188,-3.6135,-3.614,-3.6312,-3.6315,-3.6318,-3.6344,0,0,0,0,0,0,-3.5844,-3.5861,-3.5886,-3.5927,-3.5944,-3.603,-3.6003,-3.6008,-3.6034,-3.6032,-3.6072,-3.6077,-3.6088,-3.615,-3.6162,-3.6193,-3.6143,-3.631,-3.6314,-3.6317,-3.6341,-3.6348,-3.6354,0,0,0,0,0,-3.5838,-3.5889,-3.5887,-3.5901,-3.5976,-3.6032,-3.6042,-3.6054,-3.6036,-3.6062,-3.6082,-3.6076,-3.6182,-3.6156,-3.617,-3.6203,-3.6308,-3.6312,-3.6317,-3.6338,-3.6347,-3.6354,0,0,0,0,0,0,-3.5849,-3.5894,-3.5893,-3.5959,-3.5992,-3.6031,-3.6063,-3.6062,-3.61,-3.6096,-3.6109,-3.6118,-3.6177,-3.6196,-3.6166,-3.6268,-3.6243,-3.625,-3.6254,-3.6263,-3.6269,-3.6263,-3.6147,0,0,0,0,0,-3.5859,-3.5902,-3.5939,-3.5993,-3.601,-3.6034,-3.6059,-3.6066,-3.61,-3.6113,-3.6138,-3.617,-3.6211,-3.6238,-3.6277,-3.6343,-3.6353,-3.6373,-3.6379,-3.6384,-3.6391,-3.6429,-3.6439,-3.6334,-3.6334,-3.6334,0,0,-3.588,-3.5911,-3.5936,-3.5996,-3.6023,-3.6066,-3.6046,-3.6092,-3.6124,-3.612,-3.6178,-3.6197,-3.6234,-3.6297,-3.6326,-3.6314,-3.6422,-3.639,-3.6394,-3.6398,-3.6435,-3.6444,-3.6453,-3.6338,-3.6337,-3.6336,0,0,-3.5942,-3.5968,-3.6018,-3.6045,-3.6086,-3.6102,-3.6114,-3.6154,-3.6167,-3.6226,-3.6224,-3.6262,-3.6332,-3.6359,-3.6382,-3.6456,-3.6452,-3.6468,-3.6502,-3.6539,-3.6547,-3.6555,-3.6582,-3.6592,-3.6474,-3.6474,-3.6474,0,-3.5962,-3.6029,-3.6043,-3.6091,-3.6117,-3.6118,-3.6168,-3.6193,-3.6244,-3.6262,-3.6249,-3.6338,-3.6363,-3.6433,-3.6452,-3.647,-3.6484,-3.6464,-3.6545,-3.6553,-3.656,-3.6586,-3.6596,-3.6476,-3.6476,-3.6476,-3.6476,0,-3.6053,-3.6099,-3.6134,-3.6186,-3.6217,-3.6265,-3.6286,-3.6315,-3.632,-3.6337,-3.6397,-3.6427,-3.6474,-3.6491,-3.6495,-3.6563,-3.6554,-3.6543,-3.6517,-3.6572,-3.6597,-3.6607,-3.6479,-3.6478,-3.6478,-3.6477,0,0,-3.6122,-3.6183,-3.6196,-3.622,-3.6266,-3.6302,-3.6351,-3.6398,-3.6423,-3.6459,-3.65,-3.6561,-3.6551,-3.6577,-3.6584,-3.6617,-3.6675,-3.6602,-3.6603,-3.6615,-3.6753,-3.6762,-3.6773,-3.6673,-3.6675,-3.6676,-3.675,0,-3.6189,-3.6277,-3.6292,-3.6369,-3.6412,-3.6414,-3.6457,-3.6489,-3.6507,-3.6546,-3.6565,-3.6608,-3.6592,-3.6608,-3.664,-3.6661,-3.6703,-3.6656,-3.6711,-3.6713,-3.6703,-3.6786,-3.6795,-3.6864,-3.676,-3.6762,-3.6763,0,-3.6278,-3.6318,-3.64,-3.6443,-3.6462,-3.65,-3.6546,-3.6583,-3.662,-3.6631,-3.6661,-3.6665,-3.6716,-3.6689,-3.6759,-3.6726,-3.675,-3.6764,-3.6767,-3.6773,-3.6741,-3.6795,-3.6886,-3.6896,-3.6778,-3.6777,-3.6776,0,-3.6321,-3.6396,-3.6456,-3.6476,-3.6527,-3.6554,-3.6576,-3.6612,-3.664,-3.6679,-3.6698,-3.6742,-3.6766,-3.68,-3.6815,-3.6794,-3.6885,-3.6858,-3.6895,-3.6895,-3.6914,-3.6913,-3.7011,-3.6928,-3.6928,-3.6928,-3.6928,0,-3.6394,-3.6445,-3.6476,-3.6513,-3.657,-3.6586,-3.6641,-3.6663,-3.6695,-3.6736,-3.6739,-3.6776,-3.6795,-3.6835,-3.6847,-3.6904,-3.6915,-3.6925,-3.6928,-3.6925,-3.6924,-3.6941,-3.6937,-3.6931,-3.693,-3.693,-3.6929,0,-3.6452,-3.6475,-3.6541,-3.6584,-3.6597,-3.6637,-3.6674,-3.6709,-3.6727,-3.6779,-3.6792,-3.682,-3.6868,-3.6887,-3.6945,-3.6953,-3.7019,-3.7018,-3.7007,-3.7008,-3.7045,-3.7041,-3.7157,-3.7173,-3.7079,-3.708,-3.7081,0,-3.6498,-3.6537,-3.6586,-3.6614,-3.6638,-3.6683,-3.6713,-3.6731,-3.6761,-3.6808,-3.6838,-3.6887,-3.6926,-3.7003,-3.7028,-3.7072,-3.7073,-3.711,-3.7079,-3.7076,-3.7074,-3.7072,-3.7077,-3.7116,-3.7117,-3.7118,-3.7118,0,-3.6576,-3.6586,-3.663,-3.6678,-3.6713,-3.6751,-3.6788,-3.6811,-3.6835,-3.6869,-3.6919,-3.695,-3.7011,-3.7059,-3.7106,-3.7127,-3.7127,-3.7128,-3.7139,-3.7137,-3.713,-3.7135,-3.7024,-3.7125,-3.7124,-3.7124,-3.7124,-3.7123,-3.663,-3.6666,-3.6707,-3.6755,-3.6786,-3.6821,-3.6857,-3.6881,-3.6924,-3.6976,-3.6984,-3.7038,-3.7076,-3.7139,-3.7163,-3.7205,-3.7195,-3.721,-3.7215,-3.7218,-3.7222,-3.7123,-3.7213,-3.7213,-3.7213,-3.7212,-3.7212,0,-3.6709,-3.6737,-3.6781,-3.6834,-3.6873,-3.6871,-3.6913,-3.6945,-3.6993,-3.7029,-3.7069,-3.7127,-3.7175,-3.7205,-3.7252,-3.728,-3.7281,-3.7292,-3.729,-3.7296,-3.7227,-3.7213,-3.7291,-3.7291,-3.7291,-3.7291,-3.7291,-3.729,-3.6755,-3.6817,-3.6832,-3.6908,-3.6935,-3.6989,-3.7014,-3.7046,-3.7075,-3.7141,-3.7182,-3.7202,-3.7235,-3.7286,-3.7329,-3.7337,-3.7354,-3.7366,-3.7373,-3.7308,-3.73,-3.7293,-3.728,-3.737,-3.737,-3.7438,-3.7439,-3.7439]}]]